Home   Weather   Madrid   Past weeks

Flag for Spain Past Weather in Madrid, Spain — Yesterday and Last 2 Weeks

Now
54 °F

Passing clouds.


Feels Like: 49 °F
Forecast: 24 / 43 °F
Wind: 15 mph from North

Location: Madrid / Cuatro Vientos

Current Time: Jan 17, 2017 at 2:19:30 pm

Latest Report: Jan 17, 2017 at 1:30 pm


Visibility: N/A

Pressure: 30.07 "Hg (27.79 "Hg at 658m altitude)

Humidity: 28%

Dew Point: 21 °F

Location of MadridLocation

Past Weather in Madrid — Graph

°F

Madrid Temperature Yesterday

Maximum temperature yesterday: 55 °F (at 2:00 pm)
Minimum temperature yesterday: 37 °F (at 7:00 am)
Average temperature yesterday: 48 °F

High & Low Weather Summary for the Past Weeks

 TemperatureHumidityPressure
High64 °F (Jan 11, 3:30 pm)100% (Jan 3, 7:00 am)30.42 "Hg (Jan 3, 7:00 am)
Low28 °F (Jan 8, 8:30 am)17% (Jan 6, 4:00 pm)30.04 "Hg (Jan 10, 1:00 pm)
Average46 °F64%30.26 "Hg
* Reported Jan 2 1:00 pm — Jan 17 1:00 pm, Madrid, Weather by CustomWeather, © 2017

Note: Actual official high and low records may vary slightly from our data, if they occured in-between our weather recording intervals... More about our weather records

Advertising

Madrid Weather History for the Previous 24 Hours

Scroll right to see more
 ConditionsComfort  
Time TempWeatherWind HumidityBarometerVisibility
1:00 pm
Tue, Jan 17
52 °FPassing clouds.20 mph32%30.07 "HgN/A
12:30 pm54 °FPassing clouds.10 mph35%30.09 "HgN/A
12:00 pm54 °FPassing clouds.12 mph38%30.09 "HgN/A
11:30 am54 °FPassing clouds.12 mph41%30.09 "HgN/A
11:00 am52 °FPassing clouds.2 mph54%30.09 "HgN/A
10:30 am52 °FPassing clouds.No wind58%30.09 "HgN/A
10:00 am46 °FPassing clouds.6 mph66%30.09 "HgN/A
9:30 am45 °FPassing clouds.No wind66%30.09 "HgN/A
9:00 am43 °FPassing clouds.2 mph71%30.09 "HgN/A
8:30 am41 °FPassing clouds.2 mph70%30.07 "HgN/A
8:00 am43 °FPassing clouds.1 mph71%30.09 "HgN/A
7:30 am41 °FPassing clouds.8 mph76%30.07 "HgN/A
8:00 pm
Mon, Jan 16
45 °FClear.No wind61%30.18 "Hg10 mi
7:30 pm46 °FClear.1 mph57%30.18 "Hg10 mi
7:00 pm46 °FClear.No wind57%30.18 "Hg10 mi
6:30 pm50 °FClear.3 mph50%30.18 "Hg10 mi
6:00 pm50 °FSunny.5 mph50%30.18 "Hg10 mi
5:30 pm54 °FPassing clouds.1 mph44%30.18 "HgN/A
5:00 pm55 °FPassing clouds.No wind41%30.18 "HgN/A
4:30 pm54 °FPassing clouds.6 mph41%30.21 "HgN/A
4:00 pm55 °FPassing clouds.3 mph41%30.21 "HgN/A
3:30 pm55 °FPassing clouds.8 mph38%30.21 "HgN/A
3:00 pm55 °FPassing clouds.7 mph41%30.21 "HgN/A
2:30 pm55 °FPassing clouds.6 mph41%30.21 "HgN/A
2:00 pm55 °FPassing clouds.7 mph41%30.21 "HgN/A
Weather by CustomWeather, © 2017

See weather overviewHow to use our weather pages